Ontario, CA

9:39 AM PDT on July 23, 2016 (GMT -0700)
Ontario International

Weather History for KONT - July, 2013

Change the Weather History Date:

Tuesday, July 9, 2013

  Actual Average Record
Temperature  
Mean Temperature 85 °F 77 °F  
Max Temperature 99 °F 92 °F 102 °F (2002)
Min Temperature 71 °F 63 °F 56 °F (2010)
Degree Days  
Heating Degree Days 0 0  
Month to date heating degree days 0 0  
Since 1 June heating degree days 0 5  
Since 1 July heating degree days 0 0  
Cooling Degree Days 20 12  
Month to date cooling degree days 145 104  
Year to date cooling degree days 742 493  
Since 1 June cooling degree days 451 327  
Growing Degree Days 35 (Base 50)    
Moisture  
Dew Point 53 °F    
Average Humidity 32    
Maximum Humidity 49    
Minimum Humidity 15    
Precipitation  
Precipitation 0.00 in 0.00 in 0.01 in (1970)
Month to date precipitation T 0.02  
Year to date precipitation 2.79 10.40  
Since 1 July precipitation T  
Snow  
Snow 0.00 in - - ()
Month to date snowfall 0.0  
Year to date snowfall 0.0  
Snow Depth 0.00 in    
Sea Level Pressure  
Sea Level Pressure 29.89 in    
Wind  
Wind Speed 5 mph (WSW)    
Max Wind Speed 18 mph    
Max Gust Speed 23 mph    
Visibility 10 miles    
Events      
T = Trace of Precipitation, MM = Missing Value Source: NWS Daily Summary

Daily Weather History Graph

Daily Weather History Graph

Search for Another Location

Airport or City:

Trip Planner

Search our weather history database for the weather conditions in past years. The results will help you decide how hot, cold, wet, or windy it might be!

Date:

Astronomy

Jul. 09, 2013 Rise Set
Actual Time 5:46 AM PDT 8:04 PM PDT
Civil Twilight 5:17 AM PDT 8:33 PM PDT
Nautical Twilight 4:42 AM PDT 9:08 PM PDT
Astronomical Twilight 4:04 AM PDT 9:46 PM PDT
Moon 7:09 AM PDT (7/9) 8:51 PM PDT (7/9)
Length of Visible Light 15h 15m
Length of Day
14h 17m
New Moon, 2% of the Moon is Illuminated
Jul 9
New Moon
Jul 15
First Quarter
Jul 22
Full
Jul 29
Last Quarter
Aug 6
New

Hourly Weather History & Observations

Time (PDT) Temp. Heat Index Dew Point Humidity Pressure Visibility Wind Dir Wind Speed Gust Speed Precip Events Conditions
12:53 AM 75.0 °F - 51.1 °F 43% 29.88 in 10.0 mi Calm Calm - N/A   Clear
1:53 AM 75.9 °F - 52.0 °F 43% 29.87 in - Calm Calm - N/A   Clear
3:53 AM 73.4 °F - 51.8 °F 47% 29.92 in 10.0 mi Calm Calm - N/A   Partly Cloudy
4:53 AM 72.0 °F - 52.0 °F 49% 29.86 in 10.0 mi Calm Calm - N/A   Partly Cloudy
5:53 AM 73.0 °F - 52.0 °F 48% 29.87 in 10.0 mi Calm Calm - N/A   Scattered Clouds
6:53 AM 75.0 °F - 52.0 °F 44% 29.90 in 10.0 mi Calm Calm - N/A   Partly Cloudy
7:53 AM 79.0 °F - 52.0 °F 39% 29.91 in 10.0 mi Calm Calm - N/A   Partly Cloudy
9:53 AM 87.1 °F - 50.0 °F 28% 29.92 in 8.0 mi Calm Calm - N/A   Mostly Cloudy
10:53 AM 93.0 °F - 48.9 °F 22% 29.92 in 9.0 mi SW 4.6 mph - N/A   Scattered Clouds
11:53 AM 98.1 °F - 42.1 °F 15% 29.91 in 10.0 mi WSW 8.1 mph - N/A   Scattered Clouds
12:53 PM 96.1 °F 94.1 °F 55.0 °F 25% 29.92 in 10.0 mi WSW 15.0 mph 21.9 mph N/A   Scattered Clouds
1:53 PM 93.9 °F 91.7 °F 54.0 °F 26% 29.92 in 10.0 mi West 13.8 mph - N/A   Scattered Clouds
3:53 PM 93.0 °F 91.4 °F 55.9 °F 29% 29.90 in 10.0 mi West 13.8 mph 23.0 mph N/A   Scattered Clouds
4:53 PM 91.9 °F 90.6 °F 57.0 °F 31% 29.90 in 10.0 mi WSW 11.5 mph - N/A   Partly Cloudy
5:53 PM 90.0 °F 88.8 °F 57.9 °F 34% 29.87 in 10.0 mi WSW 9.2 mph - N/A   Partly Cloudy
6:53 PM 88.0 °F 86.7 °F 57.0 °F 35% 29.87 in 10.0 mi SW 11.5 mph - N/A   Partly Cloudy
7:53 PM 82.9 °F 82.1 °F 55.9 °F 39% 29.88 in 10.0 mi SSW 6.9 mph - N/A   Scattered Clouds
8:53 PM 80.1 °F 80.2 °F 55.9 °F 43% 29.88 in 10.0 mi West 8.1 mph - N/A   Scattered Clouds
9:53 PM 79.0 °F - 55.9 °F 45% 29.90 in 10.0 mi West 9.2 mph - N/A   Clear
10:53 PM 78.1 °F - 59.0 °F 52% 29.90 in 10.0 mi NW 6.9 mph - N/A   Clear